Manning, SC

11:54 AM EDT on August 19, 2017 (GMT -0400)
Santee Cooper Regional

Weather History for KMNI - July, 2013

Change the Weather History Date:

Wednesday, July 10, 2013

  Actual Average (KCKI) Record (KCKI)
Temperature  
Mean Temperature 84 °F -  
Max Temperature 91 °F 92 °F 100 °F (2015)
Min Temperature 77 °F 68 °F 71 °F (2010)
Cooling Degree Days 19    
Growing Degree Days 34 (Base 50)    
Moisture  
Dew Point 79 °F    
Average Humidity 88    
Maximum Humidity 100    
Minimum Humidity 66    
Precipitation  
Precipitation 0.00 in - - ()
Sea Level Pressure  
Sea Level Pressure 30.06 in    
Wind  
Wind Speed - (North)    
Max Wind Speed -    
Max Gust Speed -    
Visibility 10 miles    
Events      
Averages and records for this station are not official NWS values.
T = Trace of Precipitation, MM = Missing Value Source: NWS Daily Summary

Daily Weather History Graph

Daily Weather History Graph

Search for Another Location

Airport or City:

Trip Planner

Search our weather history database for the weather conditions in past years. The results will help you decide how hot, cold, wet, or windy it might be!

Date:

Astronomy

Jul. 10, 2013 Rise Set
Actual Time 6:18 AM EDT 8:33 PM EDT
Civil Twilight 5:50 AM EDT 9:01 PM EDT
Nautical Twilight 5:15 AM EDT 9:36 PM EDT
Astronomical Twilight 4:37 AM EDT 10:14 PM EDT
Moon 8:29 AM EDT (7/10) 9:52 PM EDT (7/10)
Length of Visible Light 15h 11m
Length of Day
14h 14m
Waxing Crescent, 5% of the Moon is Illuminated
Jul 10
Waxing Crescent
Jul 15
First Quarter
Jul 22
Full
Jul 29
Last Quarter
Aug 6
New

Hourly Weather History & Observations

Time (EDT) Temp. Heat Index Dew Point Humidity Pressure Visibility Wind Dir Wind Speed Gust Speed Precip Events Conditions
12:15 AM 80.6 °F 89.3 °F 80.6 °F 100% 30.14 in 10.0 mi North - - N/A   Clear
12:35 AM 80.6 °F 89.3 °F 80.6 °F 100% 30.13 in 10.0 mi North - - N/A   Clear
12:55 AM 78.8 °F - 78.8 °F 100% 30.13 in 10.0 mi North - - N/A   Clear
1:15 AM 78.8 °F - 78.8 °F 100% 30.13 in 10.0 mi North - - N/A   Clear
1:35 AM 78.8 °F - 78.8 °F 100% 30.13 in 10.0 mi North - - N/A   Clear
1:55 AM 78.8 °F - 78.8 °F 100% 30.13 in 10.0 mi North - - N/A   Scattered Clouds
2:15 AM 78.8 °F - 78.8 °F 100% 30.12 in 10.0 mi North - - N/A   Scattered Clouds
2:35 AM 78.8 °F - 78.8 °F 100% 30.11 in 10.0 mi North - - N/A   Clear
2:55 AM 78.8 °F - 78.8 °F 100% 30.10 in 10.0 mi North - - N/A   Clear
3:15 AM 78.8 °F - 78.8 °F 100% 30.10 in 10.0 mi North - - N/A   Clear
3:55 AM 78.8 °F - 78.8 °F 100% 30.09 in 10.0 mi North - - N/A   Clear
4:15 AM 78.8 °F - 78.8 °F 100% 30.09 in 10.0 mi North - - N/A   Clear
4:35 AM 77.0 °F - 77.0 °F 100% 30.10 in 10.0 mi North - - N/A   Clear
4:55 AM 78.8 °F - 78.8 °F 100% 30.10 in 10.0 mi North - - N/A   Clear
5:15 AM 78.8 °F - 78.8 °F 100% 30.09 in 10.0 mi North - - N/A   Clear
5:35 AM 78.8 °F - 78.8 °F 100% 30.09 in 10.0 mi North - - N/A   Clear
5:55 AM 78.8 °F - 78.8 °F 100% 30.10 in 10.0 mi North - - N/A   Clear
6:15 AM 78.8 °F - 78.8 °F 100% 30.10 in 10.0 mi North - - N/A   Clear
6:35 AM 78.8 °F - 78.8 °F 100% 30.10 in 10.0 mi North - - N/A   Clear
6:55 AM 78.8 °F - 78.8 °F 100% 30.11 in 10.0 mi North - - N/A   Mostly Cloudy
7:15 AM 78.8 °F - 78.8 °F 100% 30.11 in 10.0 mi North - - N/A   Mostly Cloudy
7:35 AM 78.8 °F - 78.8 °F 100% 30.11 in 10.0 mi North - - N/A   Mostly Cloudy
7:55 AM 78.8 °F - 78.8 °F 100% 30.11 in 10.0 mi North - - N/A   Overcast
8:15 AM 80.6 °F 89.3 °F 80.6 °F 100% 30.12 in 10.0 mi North - - N/A   Overcast
8:35 AM 80.6 °F 89.3 °F 80.6 °F 100% 30.12 in 10.0 mi North - - N/A   Scattered Clouds
8:55 AM 80.6 °F 88.1 °F 78.8 °F 94% 30.12 in 10.0 mi North - - N/A   Clear
9:15 AM 82.4 °F 92.4 °F 78.8 °F 89% 30.12 in 10.0 mi North - - N/A   Clear
9:35 AM 82.4 °F 92.4 °F 78.8 °F 89% 30.12 in 7.0 mi North - - N/A   Clear
9:55 AM 82.4 °F 92.4 °F 78.8 °F 89% 30.12 in 7.0 mi North - - N/A   Clear
10:15 AM 82.4 °F 92.4 °F 78.8 °F 89% 30.11 in 7.0 mi North - - N/A   Scattered Clouds
10:35 AM 86.0 °F 99.3 °F 78.8 °F 79% 30.11 in 7.0 mi North - - N/A   Scattered Clouds
10:55 AM 84.2 °F 96.1 °F 78.8 °F 84% 30.11 in 10.0 mi North - - N/A   Scattered Clouds
11:15 AM 86.0 °F 99.3 °F 78.8 °F 79% 30.11 in 7.0 mi North - - N/A   Scattered Clouds
11:35 AM 86.0 °F 99.3 °F 78.8 °F 79% 30.10 in 7.0 mi North - - N/A   Mostly Cloudy
11:55 AM 86.0 °F 99.3 °F 78.8 °F 79% 30.10 in 10.0 mi North - - N/A   Mostly Cloudy
12:15 PM 86.0 °F 96.9 °F 77.0 °F 74% 30.10 in 7.0 mi North - - N/A   Mostly Cloudy
12:35 PM 87.8 °F 102.5 °F 78.8 °F 75% 30.10 in 7.0 mi North - - N/A   Mostly Cloudy
12:55 PM 87.8 °F 102.5 °F 78.8 °F 75% 30.10 in 7.0 mi North - - N/A   Scattered Clouds
1:15 PM 87.8 °F 102.5 °F 78.8 °F 75% 30.09 in 10.0 mi North - - N/A   Clear
1:35 PM 87.8 °F 102.5 °F 78.8 °F 75% 30.08 in 10.0 mi North - - N/A   Clear
1:55 PM 87.8 °F 102.5 °F 78.8 °F 75% 30.08 in 10.0 mi North - - N/A   Clear
2:15 PM 89.6 °F 104.7 °F 78.8 °F 70% 30.06 in 7.0 mi North - - N/A   Clear
2:35 PM 89.6 °F 104.7 °F 78.8 °F 70% 30.05 in 10.0 mi North - - N/A   Clear
2:55 PM 89.6 °F 104.7 °F 78.8 °F 70% 30.04 in 10.0 mi North - - N/A   Clear
3:15 PM 89.6 °F 104.7 °F 78.8 °F 70% 30.03 in 10.0 mi North - - N/A   Clear
3:35 PM 89.6 °F 104.7 °F 78.8 °F 70% 30.02 in 10.0 mi North - - N/A   Clear
3:55 PM 91.4 °F 107.2 °F 78.8 °F 66% 30.02 in 10.0 mi North - - N/A   Clear
4:15 PM 91.4 °F 111.0 °F 80.6 °F 71% 30.01 in 10.0 mi North - - N/A   Scattered Clouds
4:35 PM 91.4 °F 111.0 °F 80.6 °F 71% 30.00 in 10.0 mi North - - N/A   Mostly Cloudy
4:55 PM 86.0 °F 99.3 °F 78.8 °F 79% 30.01 in 10.0 mi North - - N/A   Scattered Clouds
5:15 PM 84.2 °F 96.1 °F 78.8 °F 84% 30.00 in 10.0 mi North - - N/A   Scattered Clouds
5:35 PM 87.8 °F 102.5 °F 78.8 °F 75% 30.00 in 10.0 mi North - - N/A   Clear
5:55 PM 87.8 °F 102.5 °F 78.8 °F 75% 29.99 in 10.0 mi North - - N/A   Clear
6:15 PM 87.8 °F 104.9 °F 80.6 °F 79% 29.98 in 10.0 mi North - - N/A   Clear
6:35 PM 89.6 °F 104.7 °F 78.8 °F 70% 29.98 in 10.0 mi North - - N/A   Clear
6:55 PM 87.8 °F 102.5 °F 78.8 °F 75% 29.98 in 10.0 mi North - - N/A   Clear
7:15 PM 87.8 °F 102.5 °F 78.8 °F 75% 29.98 in 10.0 mi North - - N/A   Clear
7:35 PM 86.0 °F 101.9 °F 80.6 °F 84% 29.98 in 10.0 mi North - - N/A   Clear
7:55 PM 86.0 °F 101.9 °F 80.6 °F 84% 29.98 in 10.0 mi North - - N/A   Clear
8:15 PM 82.4 °F 92.4 °F 78.8 °F 89% 29.98 in 10.0 mi North - - N/A   Clear
8:35 PM 80.6 °F 88.1 °F 78.8 °F 94% 29.99 in 10.0 mi North - - N/A   Clear
8:55 PM 80.6 °F 88.1 °F 78.8 °F 94% 30.00 in 10.0 mi North - - N/A   Clear
9:15 PM 78.8 °F - 78.8 °F 100% 30.01 in 10.0 mi North - - N/A   Scattered Clouds
9:35 PM 78.8 °F - 78.8 °F 100% 30.01 in 10.0 mi North - - N/A   Mostly Cloudy
9:55 PM 80.6 °F 88.1 °F 78.8 °F 94% 30.01 in 10.0 mi North - - N/A   Scattered Clouds
10:15 PM 80.6 °F 88.1 °F 78.8 °F 94% 30.01 in 10.0 mi North - - N/A   Clear
10:35 PM 80.6 °F 88.1 °F 78.8 °F 94% 30.01 in 10.0 mi North - - N/A   Clear
10:55 PM 80.6 °F 88.1 °F 78.8 °F 94% 30.01 in 10.0 mi North - - N/A   Scattered Clouds
11:15 PM 80.6 °F 88.1 °F 78.8 °F 94% 30.02 in 10.0 mi North - - N/A   Mostly Cloudy
11:35 PM 80.6 °F 88.1 °F 78.8 °F 94% 30.01 in 10.0 mi North - - N/A   Scattered Clouds
11:55 PM 80.6 °F 88.1 °F 78.8 °F 94% 30.01 in 10.0 mi North - - N/A   Clear